When you browse on this site, cookies collect data to enhance your experience and personalize the content and advertising you see.
Visit our Privacy Policy to learn more. By continuing to use the site, you agree to this use of cookies and data.
  • In Sweden
  • List of Countries
  • For 7 days
  • Water Temperature
  • Weather Map
  • Weather Widgets
  • user-avatar
    Login

    Hourly Weather Nádasdladány

    Today, 22 February, Saturday

    Time Temperature Precipitation Wind Pressure Humidity
    00:00 +1°C° 0 mm 4 mps 759 mmHg 70%
    01:00 +1°C° 0 mm 4 mps 760 mmHg 70%
    02:00 +1°C° 0 mm 3 mps 760 mmHg 71%
    03:00 +1°C° 0 mm 3 mps 760 mmHg 72%
    04:00 +2°C° 0 mm 2 mps 760 mmHg 73%
    05:00 +2°C° 0 mm 2 mps 760 mmHg 73%
    06:00 +2°C° 0 mm 2 mps 760 mmHg 74%
    07:00 +1°C° 0 mm 2 mps 760 mmHg 72%
    08:00 +3°C° 0 mm 2 mps 760 mmHg 67%
    09:00 +5°C° 0 mm 2 mps 760 mmHg 61%
    10:00 +6°C° 0 mm 2 mps 761 mmHg 56%
    11:00 +7°C° 0 mm 3 mps 760 mmHg 54%
    12:00 +7°C° 0 mm 4 mps 760 mmHg 51%
    13:00 +8°C° 0 mm 5 mps 760 mmHg 49%
    14:00 +8°C° 0 mm 5 mps 759 mmHg 50%
    15:00 +8°C° 0 mm 5 mps 758 mmHg 50%
    16:00 +8°C° 0 mm 5 mps 758 mmHg 51%
    17:00 +7°C° 0 mm 5 mps 758 mmHg 55%
    18:00 +6°C° 0 mm 5 mps 758 mmHg 59%
    19:00 +5°C° 0 mm 4 mps 757 mmHg 63%
    20:00 +5°C° 0 mm 4 mps 757 mmHg 63%
    21:00 +5°C° 0 mm 5 mps 757 mmHg 62%
    22:00 +5°C° 0 mm 5 mps 757 mmHg 62%
    23:00 +5°C° 0 mm 4 mps 756 mmHg 64%

    Tomorrow, 23 February, Sunday

    Time Temperature Precipitation Wind Pressure Humidity
    00:00 +5°C° 0 mm 4 mps 756 mmHg 65%
    01:00 +4°C° 0 mm 3 mps 756 mmHg 67%
    02:00 +5°C° 0 mm 3 mps 756 mmHg 66%
    03:00 +5°C° 0 mm 3 mps 755 mmHg 66%
    04:00 +5°C° 0 mm 3 mps 755 mmHg 66%
    05:00 +7°C° 0 mm 3 mps 755 mmHg 67%
    06:00 +7°C° 0 mm 3 mps 755 mmHg 69%
    07:00 +7°C° 0 mm 3 mps 755 mmHg 70%
    08:00 +7°C° 0 mm 4 mps 755 mmHg 67%
    09:00 +8°C° 0 mm 4 mps 755 mmHg 64%
    10:00 +10°C° 0 mm 4 mps 754 mmHg 62%
    11:00 +10°C° 0 mm 4 mps 754 mmHg 61%
    12:00 +11°C° 0 mm 4 mps 753 mmHg 60%
    13:00 +11°C° 0 mm 4 mps 753 mmHg 59%
    14:00 +10°C° 0.1 mm 4 mps 752 mmHg 62%
    15:00 +10°C° 0.1 mm 3 mps 751 mmHg 65%
    16:00 +9°C° 0.1 mm 3 mps 750 mmHg 68%
    17:00 +9°C° 0 mm 3 mps 750 mmHg 69%
    18:00 +8°C° 0 mm 4 mps 750 mmHg 69%
    19:00 +10°C° 0 mm 4 mps 749 mmHg 70%
    20:00 +10°C° 0 mm 4 mps 749 mmHg 69%
    21:00 +9°C° 0 mm 5 mps 748 mmHg 69%
    22:00 +9°C° 0 mm 5 mps 747 mmHg 69%
    23:00 +9°C° 0 mm 6 mps 747 mmHg 68%

    Day after tomorrow, 24 February, Monday

    Time Temperature Precipitation Wind Pressure Humidity
    00:00 +9°C° 0 mm 6 mps 747 mmHg 68%
    01:00 +9°C° 0 mm 7 mps 747 mmHg 67%
    02:00 +8°C° 0.8 mm 7 mps 747 mmHg 71%
    03:00 +6°C° 0.8 mm 8 mps 748 mmHg 75%
    04:00 +6°C° 0.8 mm 9 mps 748 mmHg 79%
    05:00 +5°C° 0.2 mm 9 mps 750 mmHg 73%
    06:00 +5°C° 0.2 mm 8 mps 751 mmHg 67%
    07:00 +5°C° 0.2 mm 7 mps 752 mmHg 61%
    08:00 +5°C° 0 mm 7 mps 753 mmHg 61%
    09:00 +5°C° 0 mm 7 mps 754 mmHg 60%
    10:00 +6°C° 0 mm 7 mps 755 mmHg 60%
    11:00 +7°C° 0 mm 6 mps 755 mmHg 55%
    12:00 +7°C° 0 mm 6 mps 755 mmHg 51%
    13:00 +8°C° 0 mm 5 mps 755 mmHg 46%
    14:00 +8°C° 0 mm 4 mps 755 mmHg 46%
    15:00 +9°C° 0 mm 3 mps 754 mmHg 46%
    16:00 +9°C° 0 mm 2 mps 754 mmHg 46%
    17:00 +8°C° 0 mm 2 mps 754 mmHg 50%
    18:00 +7°C° 0 mm 2 mps 754 mmHg 54%
    19:00 +7°C° 0 mm 2 mps 753 mmHg 58%
    20:00 +6°C° 0 mm 2 mps 753 mmHg 60%
    21:00 +5°C° 0 mm 3 mps 752 mmHg 61%
    22:00 +5°C° 0 mm 3 mps 752 mmHg 63%
    23:00 +4°C° 0 mm 3 mps 751 mmHg 64%

    25 February, Tuesday

    Time Temperature Precipitation Wind Pressure Humidity
    00:00 +4°C° 0 mm 3 mps 751 mmHg 65%
    01:00 +4°C° 0 mm 3 mps 750 mmHg 66%
    02:00 +4°C° 0 mm 3 mps 750 mmHg 67%
    03:00 +4°C° 0 mm 3 mps 749 mmHg 67%
    04:00 +3°C° 0 mm 3 mps 748 mmHg 68%
    05:00 +3°C° 0 mm 3 mps 748 mmHg 71%
    06:00 +4°C° 0 mm 2 mps 748 mmHg 73%
    07:00 +4°C° 0 mm 2 mps 748 mmHg 76%
    08:00 +4°C° 0 mm 3 mps 747 mmHg 74%
    09:00 +7°C° 0 mm 3 mps 747 mmHg 72%
    10:00 +9°C° 0 mm 3 mps 746 mmHg 71%
    11:00 +10°C° 0 mm 4 mps 746 mmHg 68%
    12:00 +12°C° 0 mm 5 mps 745 mmHg 65%
    13:00 +13°C° 0 mm 6 mps 744 mmHg 62%
    14:00 +13°C° 0 mm 5 mps 743 mmHg 64%
    15:00 +13°C° 0 mm 5 mps 743 mmHg 65%
    16:00 +13°C° 0 mm 5 mps 742 mmHg 67%
    17:00 +12°C° 0 mm 5 mps 741 mmHg 69%
    18:00 +12°C° 0 mm 5 mps 741 mmHg 72%
    19:00 +10°C° 0 mm 5 mps 741 mmHg 75%
    20:00 +11°C° 0 mm 4 mps 741 mmHg 77%
    21:00 +10°C° 0 mm 4 mps 740 mmHg 79%
    22:00 +10°C° 0 mm 4 mps 740 mmHg 81%
    23:00 +9°C° 0.1 mm 3 mps 740 mmHg 82%

    26 February, Wednesday

    Time Temperature Precipitation Wind Pressure Humidity
    00:00 +9°C° 0.1 mm 3 mps 739 mmHg 82%
    01:00 +9°C° 0.1 mm 2 mps 739 mmHg 83%
    02:00 +9°C° 1.9 mm 3 mps 739 mmHg 86%
    03:00 +8°C° 1.9 mm 3 mps 738 mmHg 88%
    04:00 +8°C° 1.9 mm 3 mps 738 mmHg 91%
    05:00 +7°C° 1.5 mm 3 mps 738 mmHg 89%
    06:00 +7°C° 1.5 mm 2 mps 738 mmHg 88%
    07:00 +8°C° 1.5 mm 1 mps 738 mmHg 87%
    08:00 +7°C° 0.1 mm 2 mps 738 mmHg 80%
    09:00 +7°C° 0.1 mm 2 mps 738 mmHg 74%
    10:00 +8°C° 0.1 mm 3 mps 738 mmHg 68%
    11:00 +8°C° 0 mm 3 mps 737 mmHg 66%
    12:00 +8°C° 0 mm 3 mps 737 mmHg 63%
    13:00 +8°C° 0 mm 3 mps 737 mmHg 61%
    14:00 +7°C° 0.1 mm 4 mps 737 mmHg 61%
    15:00 +7°C° 0.1 mm 4 mps 736 mmHg 60%
    16:00 +7°C° 0.1 mm 5 mps 736 mmHg 60%
    17:00 +6°C° 0 mm 4 mps 736 mmHg 62%
    18:00 +6°C° 0 mm 4 mps 737 mmHg 65%
    19:00 +5°C° 0 mm 3 mps 737 mmHg 67%
    20:00 +5°C° 0 mm 4 mps 737 mmHg 67%
    21:00 +4°C° 0 mm 4 mps 737 mmHg 66%
    22:00 +3°C° 0 mm 5 mps 737 mmHg 65%
    23:00 +3°C° 0 mm 6 mps 738 mmHg 65%

    27 February, Thursday

    Time Temperature Precipitation Wind Pressure Humidity
    00:00 +3°C° 0 mm 7 mps 738 mmHg 64%
    01:00 +1°C° 0 mm 8 mps 739 mmHg 64%
    02:00 +1°C° 0 mm 8 mps 739 mmHg 67%
    03:00 0°C° 0 mm 8 mps 740 mmHg 71%
    04:00 0°C° 0 mm 9 mps 740 mmHg 74%
    05:00 0°C° 0 mm 9 mps 741 mmHg 74%
    06:00 0°C° 0 mm 10 mps 742 mmHg 73%
    07:00 0°C° 0 mm 10 mps 742 mmHg 72%
    08:00 0°C° 0 mm 10 mps 743 mmHg 69%
    09:00 +1°C° 0 mm 10 mps 744 mmHg 65%
    10:00 +2°C° 0 mm 10 mps 745 mmHg 62%
    11:00 +2°C° 0 mm 10 mps 745 mmHg 59%
    12:00 +3°C° 0 mm 9 mps 746 mmHg 56%
    13:00 +5°C° 0 mm 9 mps 746 mmHg 52%
    14:00 +5°C° 0 mm 9 mps 746 mmHg 52%
    15:00 +5°C° 0 mm 8 mps 747 mmHg 52%
    16:00 +5°C° 0 mm 8 mps 747 mmHg 51%
    17:00 +4°C° 0 mm 7 mps 748 mmHg 56%
    18:00 +3°C° 0 mm 6 mps 748 mmHg 62%
    19:00 +3°C° 0 mm 4 mps 749 mmHg 67%
    20:00 +1°C° 0 mm 4 mps 749 mmHg 67%
    21:00 +1°C° 0 mm 4 mps 750 mmHg 68%
    22:00 +1°C° 0 mm 4 mps 750 mmHg 68%
    23:00 +2°C° 0 mm 3 mps 750 mmHg 70%
    Show more